sat.trackr.live / text

‹ back to catalog

STARLINK-33534

NORAD 63499 · 2025-071G

PAYLOAD ACTIVE UNKNOWN

§ Identity

Operator
Country
US
Launch date
2025-04-07
Launch site
AFWTR
Launch vehicle
Mass (kg)
RCS (m²)

Purposes: comms

External: N2YO · Heavens-Above · Gunter

§ Orbital elements

Epoch: 2026-05-24T23:34:33.229056Z

Period
94.01 min
Inclination
53.1591°
Eccentricity
0.0001281
Mean motion
15.31703254 rev/d
Perigee alt
469.9 km
Apogee alt
471.6 km
Semi-major
6,848.9 km
B*
7.4070e-4
RAAN
145.3434°
Arg perigee
83.5435°
Mean anomaly
276.5712°
Rev number
6,443

§ Raw data

STARLINK-335341 63499U 25071G   26144.98232904  .00022692  00000+0  74070-3 0  99912 63499  53.1591 145.3434 0001281  83.5435 276.5712 15.31703254 64439

JSON: /api/v1/satellites/63499 · /tle

For live sub-satellite position, see the globe view (requires WebGL).

§ Visibility from observer

Set your observer location to see the next 7 days of passes ≥ 10°. The values pass through the URL so the page stays shareable.

No JS? Fill the form by hand. The geolocation button needs JavaScript.